Regional Weather Roundup
Issued by NWS Green Bay, WI

Home | Current Version | Previous Version | Graphics & Text | Print | Product List | Glossary Off
Versions: 1 2 3 4 5 6 7 8 9 10 11 12 13 14 15 16 17 18 19 20 21 22 23 24 25 26 27 28 29 30 31 32 33 34 35 36 37 38 39 40 41 42 43 44 45 46 47 48 49 50

844
ASUS43 KGRB 220811
RWRGRB

NORTH-CENTRAL AND NORTHEAST WISCONSIN REGIONAL WEATHER ROUNDUP
NATIONAL WEATHER SERVICE GREEN BAY WI
200 AM CST THU FEB 22 2018

WIZ005-009-010>012-018-019-220900-
NORTH CENTRAL WISCONSIN

CITY           SKY/WX    TMP DP  RH WIND       PRES   REMARKS
IRONWOOD       FAIR       0  -3  87 CALM      30.62S
MANITOWISH WTR FAIR      -9 -13  83 CALM      30.59S
ARBOR VITAE    FAIR      -2  -6  82 CALM      30.58S
EAGLE RIVER    FAIR      -5 -10  79 CALM      30.58F
LAND O LAKES   FAIR     -11 -16  79 CALM      30.60S
RHINELANDER    FAIR      -2  -6  83 CALM      30.58F
PHILLIPS       FAIR      -5  -8  84 CALM      30.59S
ANTIGO         FAIR       2  -1  87 CALM      30.58F
TOMAHAWK       FAIR      -7 -11  82 CALM      30.60S
MERRILL        FAIR      -1  -4  87 CALM      30.61F
$$

WIZ013-073-220900-
NORTHEAST WISCONSIN

CITY           SKY/WX    TMP DP  RH WIND       PRES   REMARKS
IRON MOUNTAIN  FAIR       5   0  79 CALM      30.61F
MARINETTE      FAIR      15  10  80 NW5       30.67S WCI   8
OCONTO         FAIR      17  10  73 CALM      30.66S
$$

WIZ017-030-035>037-045-220900-
CENTRAL WISCONSIN

CITY           SKY/WX    TMP DP  RH WIND       PRES   REMARKS
MEDFORD        FAIR      -2  -5  84 NE5       30.57F WCI -12
WAUSAU         FAIR       6   3  87 N3        30.58F
MOSINEE        FAIR      10   5  79 N7        30.60F WCI   0
MARSHFIELD     FAIR      11   3  70 NE7       30.57F WCI   0
WISC RAPIDS    FAIR      14   7  73 NE5       30.60F WCI   6
STEVENS POINT  FAIR       8   5  90 CALM      30.60F
WAUPACA        FAIR      18  12  78 CALM      30.63F
SHAWANO        FAIR      17   9  71 CALM      30.64S
CLINTONVILLE   FAIR      16   8  71 NE3       30.63F
WAUTOMA        FAIR      17  11  77 E5        30.62F WCI  10
$$

WIZ038-039-048-051-220900-
FOX VALLEY

CITY           SKY/WX    TMP DP  RH WIND       PRES   REMARKS
NWS GREEN BAY  FAIR      18   9  68 NE3       30.66F
APPLETON       MOCLDY    19   7  58 NE5       30.61F
OSHKOSH        MOCLDY    19  11  70 E6        30.63F
FOND DU LAC    MOCLDY    21  12  68 NE6       30.63F
$$

WIZ022-050-052-220900-
EAST CENTRAL WISCONSIN

CITY           SKY/WX    TMP DP  RH WIND       PRES   REMARKS
EPHRAIM        FAIR      15  10  77 N5        30.64S WCI   8
WASHINGTON ISL FAIR      15  12  88 N3        30.66R
STURGEON BAY   FAIR      17  12  80 NW3       30.66F
MANITOWOC      FAIR      21  13  71 N5        30.65F
SHEBOYGAN      FAIR      21  14  74 N6        30.64S
$$

LMZ563-521-522-541>543-220900-
LAKESHORE

STATION/POSITION TIME  TEMP    WIND        PRES    VSBY  WAVE
                       AIR SEA DIR/SP/G                  HT/PER
                 (UTC) (F)     (DEG/KT/KT) (MB)    (MI)  (FT/S)
SHEBOYGAN LKSHOR 0800   26      20/ 11/ 12 1038.7R
KEWAUNEE LKSHORE 0748   19        CALM     1037.3F
NORTHPORT PIER   0803   20                 1037.9
MENOMINEE LKSHOR 0748   17     310/  5/  6 1037.7F
$$




USA.gov is the U.S. government's official web portal to all federal, state and local government web resources and services.